Location: *
(46.1866°S, 178.5290°W)
Time: 18:04:12
(UTC+00:00)

Cosmos 2315 Rocket - Pass Details

Date: 19 May 2021
Orbit: 965 x 1003 km, 82.9° (Epoch: 17 June)

Event Time Altitude Azimuth Distance (km) Brightness Sun altitude
Rises 07:11:54 0° 192° (SSW) 3,722 7.2 -28.1°
Reaches altitude 10° 07:14:27 10° 194° (SSW) 2,772 6.5 -28.5°
Maximum altitude 07:20:45 66° 274° (W) 1,090 4.3 -29.6°
Drops below altitude 10° 07:27:01 10° 354° (N) 2,765 6.4 -30.7°
Sets 07:29:34 0° 356° (N) 3,711 7.1 -31.2°
